When you browse on this site, cookies collect data to enhance your experience and personalize the content and advertising you see.
Visit our Privacy Policy to learn more. By continuing to use the site, you agree to this use of cookies and data.
  • In Portugal
  • List of Countries
  • For 7 days
  • Water Temperature
  • Weather Map
  • Weather Widgets
  • user-avatar
    Login

    Hourly Weather Kocuby

    Today, 19 January, Sunday

    Time Temperature Precipitation Wind Pressure Humidity
    00:00 0°C° 0.2 mm 1 mps 721 mmHg 90%
    01:00 0°C° 0 mm 1 mps 721 mmHg 93%
    02:00 0°C° 0.4 mm 1 mps 721 mmHg 95%
    03:00 0°C° 0.4 mm 1 mps 721 mmHg 96%
    04:00 +1°C° 0.4 mm 1 mps 721 mmHg 97%
    05:00 +1°C° 0.4 mm 1 mps 722 mmHg 97%
    06:00 +1°C° 0.4 mm 1 mps 722 mmHg 98%
    07:00 +1°C° 0.4 mm 1 mps 722 mmHg 98%
    08:00 +1°C° 0.3 mm 1 mps 722 mmHg 97%
    09:00 +1°C° 0.3 mm 1 mps 723 mmHg 97%
    10:00 +1°C° 0.3 mm 1 mps 723 mmHg 96%
    11:00 +1°C° 0.2 mm 1 mps 723 mmHg 96%
    12:00 +1°C° 0.2 mm 1 mps 723 mmHg 96%
    13:00 +1°C° 0.2 mm 1 mps 724 mmHg 95%
    14:00 +1°C° 0.2 mm 1 mps 724 mmHg 96%
    15:00 +1°C° 0.2 mm 1 mps 725 mmHg 96%
    16:00 +1°C° 0.2 mm 1 mps 725 mmHg 97%
    17:00 +1°C° 0.3 mm 1 mps 726 mmHg 97%
    18:00 +1°C° 0.3 mm 1 mps 726 mmHg 97%
    19:00 +1°C° 0.3 mm 1 mps 727 mmHg 98%
    20:00 +1°C° 0.2 mm 1 mps 727 mmHg 98%
    21:00 +1°C° 0.2 mm 1 mps 728 mmHg 98%
    22:00 +1°C° 0.2 mm 1 mps 728 mmHg 98%
    23:00 +1°C° 0.1 mm 1 mps 729 mmHg 98%

    Tomorrow, 20 January, Monday

    Time Temperature Precipitation Wind Pressure Humidity
    00:00 +1°C° 0.1 mm 1 mps 729 mmHg 98%
    01:00 +1°C° 0.1 mm 1 mps 730 mmHg 98%
    02:00 +1°C° 0.1 mm 1 mps 730 mmHg 98%
    03:00 +1°C° 0.1 mm 1 mps 730 mmHg 97%
    04:00 0°C° 0.1 mm 1 mps 730 mmHg 97%
    05:00 0°C° 0 mm 1 mps 731 mmHg 97%
    06:00 0°C° 0 mm 1 mps 732 mmHg 97%
    07:00 0°C° 0 mm 1 mps 732 mmHg 97%
    08:00 +1°C° 0.1 mm 1 mps 733 mmHg 95%
    09:00 +1°C° 0.1 mm 1 mps 733 mmHg 93%
    10:00 +1°C° 0.1 mm 1 mps 733 mmHg 91%
    11:00 +2°C° 0 mm 1 mps 734 mmHg 89%
    12:00 +2°C° 0 mm 1 mps 734 mmHg 86%
    13:00 +2°C° 0 mm 1 mps 734 mmHg 84%
    14:00 +2°C° 0 mm 1 mps 734 mmHg 86%
    15:00 +2°C° 0 mm 1 mps 734 mmHg 87%
    16:00 +1°C° 0 mm 1 mps 734 mmHg 89%
    17:00 +1°C° 0 mm 1 mps 734 mmHg 89%
    18:00 0°C° 0 mm 1 mps 734 mmHg 90%
    19:00 -1°C° 0 mm 1 mps 735 mmHg 91%
    20:00 -1°C° 0 mm 1 mps 735 mmHg 91%
    21:00 -1°C° 0 mm 1 mps 735 mmHg 91%
    22:00 -2°C° 0 mm 1 mps 735 mmHg 92%
    23:00 -2°C° 0 mm 1 mps 734 mmHg 91%

    Day after tomorrow, 21 January, Tuesday

    Time Temperature Precipitation Wind Pressure Humidity
    00:00 -2°C° 0 mm 1 mps 734 mmHg 91%
    01:00 -2°C° 0 mm 1 mps 734 mmHg 90%
    02:00 -2°C° 0 mm 1 mps 734 mmHg 89%
    03:00 -2°C° 0 mm 1 mps 733 mmHg 88%
    04:00 -2°C° 0 mm 1 mps 733 mmHg 86%
    05:00 -2°C° 0 mm 1 mps 733 mmHg 85%
    06:00 -2°C° 0 mm 1 mps 733 mmHg 84%
    07:00 -2°C° 0 mm 1 mps 732 mmHg 82%
    08:00 -1°C° 0 mm 1 mps 732 mmHg 78%
    09:00 0°C° 0 mm 1 mps 732 mmHg 75%
    10:00 +2°C° 0 mm 1 mps 732 mmHg 71%
    11:00 +3°C° 0 mm 1 mps 732 mmHg 69%
    12:00 +3°C° 0 mm 1 mps 732 mmHg 68%
    13:00 +4°C° 0 mm 1 mps 732 mmHg 66%
    14:00 +3°C° 0 mm 1 mps 731 mmHg 70%
    15:00 +2°C° 0 mm 1 mps 730 mmHg 75%
    16:00 +1°C° 0 mm 1 mps 730 mmHg 80%
    17:00 +1°C° 0 mm 1 mps 730 mmHg 80%
    18:00 -2°C° 0 mm 2 mps 729 mmHg 79%
    19:00 -2°C° 0 mm 2 mps 729 mmHg 79%
    20:00 -3°C° 0 mm 2 mps 729 mmHg 77%
    21:00 -3°C° 0 mm 2 mps 728 mmHg 76%
    22:00 -3°C° 0 mm 2 mps 728 mmHg 74%
    23:00 -3°C° 0 mm 2 mps 728 mmHg 73%

    22 January, Wednesday

    Time Temperature Precipitation Wind Pressure Humidity
    00:00 -3°C° 0 mm 2 mps 728 mmHg 73%
    01:00 -3°C° 0 mm 2 mps 727 mmHg 72%
    02:00 -3°C° 0 mm 2 mps 727 mmHg 72%
    03:00 -3°C° 0 mm 2 mps 726 mmHg 71%
    04:00 -1°C° 0 mm 1 mps 726 mmHg 71%
    05:00 -3°C° 0 mm 2 mps 726 mmHg 72%
    06:00 -4°C° 0 mm 2 mps 725 mmHg 72%
    07:00 -4°C° 0 mm 2 mps 725 mmHg 72%
    08:00 -2°C° 0 mm 2 mps 725 mmHg 68%
    09:00 -1°C° 0 mm 2 mps 725 mmHg 65%
    10:00 0°C° 0 mm 3 mps 725 mmHg 61%
    11:00 +1°C° 0 mm 3 mps 724 mmHg 60%
    12:00 +2°C° 0 mm 3 mps 724 mmHg 58%
    13:00 +3°C° 0 mm 4 mps 724 mmHg 57%
    14:00 +1°C° 0 mm 4 mps 724 mmHg 63%
    15:00 +1°C° 0 mm 3 mps 723 mmHg 70%
    16:00 0°C° 0 mm 3 mps 723 mmHg 76%
    17:00 0°C° 0 mm 3 mps 723 mmHg 80%
    18:00 0°C° 0 mm 3 mps 723 mmHg 85%
    19:00 -2°C° 0 mm 4 mps 723 mmHg 90%
    20:00 -1°C° 0 mm 3 mps 723 mmHg 91%
    21:00 -1°C° 0 mm 3 mps 723 mmHg 93%
    22:00 -1°C° 0 mm 3 mps 724 mmHg 94%
    23:00 -1°C° 0.1 mm 3 mps 724 mmHg 93%

    23 January, Thursday

    Time Temperature Precipitation Wind Pressure Humidity
    00:00 -2°C° 0.1 mm 4 mps 724 mmHg 92%
    01:00 -2°C° 0.1 mm 4 mps 724 mmHg 91%
    02:00 -2°C° 0 mm 4 mps 724 mmHg 91%
    03:00 -3°C° 0 mm 4 mps 724 mmHg 92%
    04:00 -2°C° 0 mm 3 mps 724 mmHg 92%
    05:00 -2°C° 0.1 mm 3 mps 725 mmHg 91%
    06:00 -4°C° 0.1 mm 3 mps 725 mmHg 90%
    07:00 -4°C° 0.1 mm 3 mps 725 mmHg 89%
    08:00 -3°C° 0 mm 2 mps 726 mmHg 84%
    09:00 0°C° 0 mm 1 mps 726 mmHg 80%
    10:00 0°C° 0 mm 1 mps 727 mmHg 75%
    11:00 0°C° 0 mm 1 mps 727 mmHg 72%
    12:00 +1°C° 0 mm 1 mps 727 mmHg 68%
    13:00 0°C° 0 mm 0 mps 727 mmHg 65%
    14:00 -1°C° 0 mm 0 mps 727 mmHg 68%
    15:00 -1°C° 0 mm 0 mps 727 mmHg 72%
    16:00 -2°C° 0 mm 0 mps 727 mmHg 76%
    17:00 -3°C° 0 mm 0 mps 727 mmHg 77%
    18:00 -2°C° 0 mm 1 mps 727 mmHg 78%
    19:00 -2°C° 0 mm 1 mps 727 mmHg 79%
    20:00 -2°C° 0 mm 1 mps 727 mmHg 78%
    21:00 -2°C° 0 mm 1 mps 727 mmHg 78%
    22:00 -2°C° 0 mm 1 mps 727 mmHg 77%
    23:00 -2°C° 0 mm 1 mps 726 mmHg 77%

    24 January, Friday

    Time Temperature Precipitation Wind Pressure Humidity
    00:00 -2°C° 0 mm 1 mps 726 mmHg 77%
    01:00 -2°C° 0 mm 1 mps 726 mmHg 77%
    02:00 -2°C° 0 mm 1 mps 725 mmHg 78%
    03:00 -2°C° 0 mm 1 mps 725 mmHg 79%
    04:00 -3°C° 0 mm 1 mps 725 mmHg 80%
    05:00 -3°C° 0 mm 1 mps 725 mmHg 79%
    06:00 -3°C° 0 mm 1 mps 724 mmHg 79%
    07:00 -3°C° 0 mm 1 mps 724 mmHg 78%
    08:00 -1°C° 0 mm 1 mps 724 mmHg 74%
    09:00 0°C° 0 mm 1 mps 724 mmHg 70%
    10:00 +1°C° 0 mm 1 mps 724 mmHg 66%
    11:00 +2°C° 0 mm 1 mps 724 mmHg 64%
    12:00 +3°C° 0 mm 1 mps 724 mmHg 62%
    13:00 +3°C° 0 mm 1 mps 723 mmHg 60%
    14:00 +2°C° 0 mm 1 mps 723 mmHg 64%
    15:00 +1°C° 0 mm 1 mps 722 mmHg 69%
    16:00 0°C° 0 mm 1 mps 722 mmHg 74%
    17:00 0°C° 0 mm 1 mps 722 mmHg 74%
    18:00 -1°C° 0 mm 1 mps 721 mmHg 74%
    19:00 -1°C° 0 mm 1 mps 721 mmHg 74%
    20:00 -1°C° 0 mm 1 mps 721 mmHg 72%
    21:00 -1°C° 0 mm 1 mps 720 mmHg 70%
    22:00 -2°C° 0 mm 1 mps 720 mmHg 69%
    23:00 -2°C° 0 mm 1 mps 720 mmHg 67%
    Show more